Siemreap, Cambodia

12:13 PM +07 on March 30, 2017 (GMT +0700)
Siem Reap

Weather History for VDSR - August, 2013

Change the Weather History Date:

Sunday, August 11, 2013

  Actual Average Record
Temperature  
Mean Temperature 84 °F -  
Max Temperature 89 °F - - ()
Min Temperature 78 °F - - ()
Cooling Degree Days 18    
Growing Degree Days 34 (Base 50)    
Moisture  
Dew Point 75 °F    
Average Humidity 79    
Maximum Humidity 94    
Minimum Humidity 59    
Precipitation  
Precipitation 0.00 in - - ()
Sea Level Pressure  
Sea Level Pressure 29.73 in    
Wind  
Wind Speed 2 mph ()    
Max Wind Speed 14 mph    
Max Gust Speed -    
Visibility 5.9 miles    
Events Rain    
T = Trace of Precipitation, MM = Missing Value Source: Averaged Metar Reports

Daily Weather History Graph

Daily Weather History Graph

Search for Another Location

Airport or City:

Trip Planner

Search our weather history database for the weather conditions in past years. The results will help you decide how hot, cold, wet, or windy it might be!

Date:

Astronomy

Aug. 11, 2013 Rise Set
Actual Time 5:51 AM +07 6:28 PM +07
Civil Twilight 5:29 AM +07 6:50 PM +07
Nautical Twilight 5:03 AM +07 7:16 PM +07
Astronomical Twilight 4:36 AM +07 7:42 PM +07
Moon 9:12 AM +07 (8/11) 9:22 PM +07 (8/11)
Length of Visible Light 13h 20m
Length of Day
12h 36m
Waxing Crescent, 18% of the Moon is Illuminated
Aug 11
Waxing Crescent
Aug 14
First Quarter
Aug 21
Full
Aug 28
Last Quarter
Sep 5
New

Hourly Weather History & Observations

Time (+07) Temp. Heat Index Dew Point Humidity Pressure Visibility Wind Dir Wind Speed Gust Speed Precip Events Conditions
12:00 AM 78.8 °F - 75.2 °F 89% 29.80 in 5.6 mi NNW 1.2 mph - N/A   Scattered Clouds
12:30 AM 78.8 °F - 75.2 °F 89% 29.77 in 5.6 mi Calm Calm - N/A   Scattered Clouds
1:00 AM 78.8 °F - 75.2 °F 89% 29.77 in 5.6 mi Calm Calm - N/A   Scattered Clouds
7:30 AM 78.8 °F - 75.2 °F 89% 29.77 in 6.2 mi Calm Calm - N/A   Scattered Clouds
8:00 AM 80.6 °F 86.2 °F 75.2 °F 84% 29.77 in 6.2 mi Calm Calm - N/A   Scattered Clouds
8:30 AM 80.6 °F 86.2 °F 75.2 °F 84% 29.77 in 6.2 mi Variable 3.5 mph - N/A   Scattered Clouds
9:00 AM 82.4 °F 89.5 °F 75.2 °F 79% 29.77 in 6.2 mi Variable 1.2 mph - N/A   Scattered Clouds
9:30 AM 82.4 °F 89.5 °F 75.2 °F 79% 29.80 in 6.2 mi Calm Calm - N/A   Scattered Clouds
10:00 AM 84.2 °F 92.3 °F 75.2 °F 74% 29.80 in 6.2 mi Variable 2.3 mph - N/A   Scattered Clouds
10:30 AM 84.2 °F 92.3 °F 75.2 °F 74% 29.77 in 6.2 mi Calm Calm - N/A   Scattered Clouds
11:00 AM 84.2 °F 92.3 °F 75.2 °F 74% 29.77 in 6.2 mi Calm Calm - N/A   Scattered Clouds
11:30 AM 86.0 °F 95.1 °F 75.2 °F 70% 29.77 in 6.2 mi Calm Calm - N/A   Scattered Clouds
12:30 PM 86.0 °F 95.1 °F 75.2 °F 70% 29.74 in 6.2 mi Calm Calm - N/A   Scattered Clouds
1:00 PM 86.0 °F 95.1 °F 75.2 °F 70% 29.74 in 6.2 mi NNW 4.6 mph - N/A   Scattered Clouds
1:30 PM 86.0 °F 95.1 °F 75.2 °F 70% 29.71 in 6.2 mi NW 4.6 mph - N/A   Scattered Clouds
2:00 PM 86.0 °F 95.1 °F 75.2 °F 70% 29.68 in 6.2 mi Calm Calm - N/A   Scattered Clouds
2:30 PM 87.8 °F 97.6 °F 75.2 °F 66% 29.65 in 6.2 mi Calm Calm - N/A   Scattered Clouds
3:00 PM 89.6 °F 99.8 °F 75.2 °F 62% 29.65 in 6.2 mi Calm Calm - N/A   Scattered Clouds
3:30 PM 89.6 °F 98.2 °F 73.4 °F 59% 29.65 in 6.2 mi Calm Calm - N/A   Scattered Clouds
4:00 PM 87.8 °F 97.6 °F 75.2 °F 66% 29.65 in 5.6 mi NNE 10.4 mph - N/A Rain Light Rain
4:30 PM 82.4 °F 90.9 °F 77.0 °F 84% 29.65 in 5.6 mi NNE 6.9 mph - N/A   Scattered Clouds
5:00 PM 84.2 °F 94.1 °F 77.0 °F 79% 29.65 in 5.6 mi Calm Calm - N/A   Scattered Clouds
5:30 PM 84.2 °F 92.3 °F 75.2 °F 74% 29.65 in 5.6 mi Calm Calm - N/A   Scattered Clouds
6:00 PM 84.2 °F 94.1 °F 77.0 °F 79% 29.68 in 5.6 mi North 1.2 mph - N/A   Scattered Clouds
6:30 PM 82.4 °F 89.5 °F 75.2 °F 79% 29.68 in 5.6 mi WNW 13.8 mph - N/A   Mostly Cloudy
7:00 PM 80.6 °F 86.2 °F 75.2 °F 84% 29.71 in 5.6 mi West 8.1 mph - N/A   Mostly Cloudy
7:30 PM 80.6 °F 86.2 °F 75.2 °F 84% 29.71 in 5.6 mi West 6.9 mph - N/A   Mostly Cloudy
8:30 PM 80.6 °F 86.2 °F 75.2 °F 84% 29.74 in 5.6 mi Variable 3.5 mph - N/A   Mostly Cloudy
9:00 PM 78.8 °F - 77.0 °F 94% 29.74 in 5.6 mi SSE 3.5 mph - N/A   Mostly Cloudy
9:30 PM 78.8 °F - 75.2 °F 89% 29.77 in 5.6 mi WSW 9.2 mph - N/A   Mostly Cloudy
10:00 PM 78.8 °F - 75.2 °F 89% 29.77 in 5.6 mi SW 6.9 mph - N/A   Mostly Cloudy
10:30 PM 78.8 °F - 75.2 °F 89% 29.77 in 5.6 mi WSW 5.8 mph - N/A   Mostly Cloudy
11:30 PM 78.8 °F - 75.2 °F 89% 29.74 in 5.6 mi Variable 2.3 mph - N/A   Mostly Cloudy